Time,TemperatureF,DewpointF,PressureIn,WindDirection,WindDirectionDegrees,WindSpeedMPH,WindSpeedGustMPH,Humidity,HourlyPrecipIn,Conditions,Clouds,dailyrainin,SoftwareType,DateUTC
2013-01-20 00:04:00,44.0,29.0,29.79,WSW,248,0.0,0.0,56,0.00,,,0.00,,2013-01-20 05:04:00,
2013-01-20 00:12:00,44.0,29.0,29.79,WSW,248,0.0,0.0,56,0.00,,,0.00,,2013-01-20 05:12:00,
2013-01-20 00:22:00,44.0,29.0,29.77,WSW,248,0.0,0.0,56,0.00,,,0.00,,2013-01-20 05:22:00,
2013-01-20 00:33:00,44.0,29.0,29.76,WSW,248,0.0,0.0,56,0.00,,,0.00,,2013-01-20 05:33:00,
2013-01-20 00:43:00,44.0,29.0,29.76,WSW,248,0.0,0.0,56,0.00,,,0.00,,2013-01-20 05:43:00,
2013-01-20 00:53:00,44.0,29.0,29.76,WSW,248,0.0,0.0,55,0.00,,,0.00,,2013-01-20 05:53:00,
2013-01-20 01:02:00,43.0,28.0,29.76,WSW,248,0.0,0.0,55,0.00,,,0.00,,2013-01-20 06:02:00,
2013-01-20 01:12:00,43.0,28.0,29.76,WSW,248,0.0,0.0,55,0.00,,,0.00,,2013-01-20 06:12:00,
2013-01-20 01:22:00,43.0,28.0,29.77,WSW,248,0.0,0.0,56,0.00,,,0.00,,2013-01-20 06:22:00,
2013-01-20 01:33:00,43.0,28.0,29.75,WSW,248,0.0,0.0,56,0.00,,,0.00,,2013-01-20 06:33:00,
2013-01-20 01:43:00,43.0,28.0,29.75,WSW,248,0.0,0.0,56,0.00,,,0.00,,2013-01-20 06:43:00,
2013-01-20 01:53:00,42.0,28.0,29.74,WSW,248,0.0,0.0,58,0.00,,,0.00,,2013-01-20 06:53:00,
2013-01-20 02:02:00,42.0,28.0,29.74,WSW,248,0.0,0.0,58,0.00,,,0.00,,2013-01-20 07:02:00,
2013-01-20 02:12:00,42.0,28.0,29.74,WSW,248,0.0,0.0,58,0.00,,,0.00,,2013-01-20 07:12:00,
2013-01-20 02:22:00,42.0,28.0,29.74,WSW,248,0.0,0.0,58,0.00,,,0.00,,2013-01-20 07:22:00,
2013-01-20 02:32:00,42.0,28.0,29.73,WSW,248,0.0,0.0,58,0.00,,,0.00,,2013-01-20 07:32:00,
2013-01-20 02:42:00,42.0,28.0,29.73,WSW,248,0.0,0.0,58,0.00,,,0.00,,2013-01-20 07:42:00,
2013-01-20 02:52:00,41.0,27.0,29.72,WSW,248,0.0,0.0,58,0.00,,,0.00,,2013-01-20 07:52:00,
2013-01-20 03:02:00,41.0,27.0,29.72,WSW,248,0.0,0.0,58,0.00,,,0.00,,2013-01-20 08:02:00,
2013-01-20 03:12:00,41.0,27.0,29.72,WSW,248,0.0,0.0,58,0.00,,,0.00,,2013-01-20 08:12:00,
2013-01-20 03:22:00,41.0,27.0,29.72,WSW,248,0.0,0.0,57,0.00,,,0.00,,2013-01-20 08:22:00,
2013-01-20 03:32:00,41.0,27.0,29.70,WSW,248,0.0,0.0,58,0.00,,,0.00,,2013-01-20 08:32:00,
2013-01-20 03:42:00,41.0,27.0,29.70,WSW,248,0.0,0.0,58,0.00,,,0.00,,2013-01-20 08:42:00,
2013-01-20 03:53:00,41.0,27.0,29.68,WSW,248,0.0,0.0,58,0.00,,,0.00,,2013-01-20 08:53:00,
2013-01-20 04:02:00,41.0,28.0,29.68,WSW,248,0.0,0.0,59,0.00,,,0.00,,2013-01-20 09:02:00,
2013-01-20 04:12:00,41.0,28.0,29.68,WSW,248,0.0,0.0,59,0.00,,,0.00,,2013-01-20 09:12:00,
2013-01-20 04:22:00,40.0,27.0,29.67,WSW,248,0.0,0.0,59,0.00,,,0.00,,2013-01-20 09:22:00,
2013-01-20 04:33:00,40.0,26.0,29.66,WSW,248,0.0,0.0,58,0.00,,,0.00,,2013-01-20 09:33:00,
2013-01-20 04:42:00,40.0,26.0,29.66,WSW,248,0.0,0.0,58,0.00,,,0.00,,2013-01-20 09:42:00,
2013-01-20 04:53:00,40.0,26.0,29.65,WSW,248,0.0,0.0,58,0.00,,,0.00,,2013-01-20 09:53:00,
2013-01-20 05:02:00,40.0,26.0,29.65,WSW,248,0.0,0.0,58,0.00,,,0.00,,2013-01-20 10:02:00,
2013-01-20 05:12:00,40.0,26.0,29.65,WSW,248,0.0,0.0,58,0.00,,,0.00,,2013-01-20 10:12:00,
2013-01-20 05:22:00,40.0,26.0,29.64,WSW,248,0.0,0.0,58,0.00,,,0.00,,2013-01-20 10:22:00,
2013-01-20 05:32:00,40.0,26.0,29.65,WSW,248,0.0,0.0,58,0.00,,,0.00,,2013-01-20 10:32:00,
2013-01-20 05:42:00,40.0,26.0,29.65,WSW,248,0.0,0.0,58,0.00,,,0.00,,2013-01-20 10:42:00,
2013-01-20 05:53:00,40.0,26.0,29.64,WSW,248,0.0,0.0,57,0.00,,,0.00,,2013-01-20 10:53:00,
2013-01-20 06:02:00,40.0,26.0,29.64,WSW,248,0.0,0.0,57,0.00,,,0.00,,2013-01-20 11:02:00,
2013-01-20 06:12:00,40.0,26.0,29.64,WSW,248,0.0,0.0,57,0.00,,,0.00,,2013-01-20 11:12:00,
2013-01-20 06:22:00,41.0,27.0,29.63,WSW,248,0.0,0.0,57,0.00,,,0.00,,2013-01-20 11:22:00,
2013-01-20 06:33:00,40.0,26.0,29.63,WSW,248,0.0,0.0,57,0.00,,,0.00,,2013-01-20 11:33:00,
2013-01-20 06:43:00,40.0,26.0,29.63,WSW,248,0.0,0.0,57,0.00,,,0.00,,2013-01-20 11:43:00,
2013-01-20 06:54:00,41.0,27.0,29.63,WSW,248,0.0,0.0,57,0.00,,,0.00,,2013-01-20 11:54:00,
2013-01-20 07:03:00,41.0,27.0,29.63,WSW,248,0.0,0.0,57,0.00,,,0.00,,2013-01-20 12:03:00,
2013-01-20 07:12:00,41.0,27.0,29.63,WSW,248,0.0,0.0,57,0.00,,,0.00,,2013-01-20 12:12:00,
2013-01-20 07:23:00,41.0,27.0,29.64,WSW,248,0.0,0.0,58,0.00,,,0.00,,2013-01-20 12:23:00,
2013-01-20 07:33:00,41.0,27.0,29.64,WSW,248,0.0,0.0,58,0.00,,,0.00,,2013-01-20 12:33:00,
2013-01-20 07:43:00,41.0,27.0,29.64,WSW,248,0.0,0.0,58,0.00,,,0.00,,2013-01-20 12:43:00,
2013-01-20 07:53:00,41.0,28.0,29.65,WSW,248,0.0,0.0,59,0.00,,,0.00,,2013-01-20 12:53:00,
2013-01-20 08:03:00,41.0,28.0,29.65,WSW,248,0.0,0.0,59,0.00,,,0.00,,2013-01-20 13:03:00,
2013-01-20 08:12:00,41.0,28.0,29.65,WSW,248,0.0,0.0,59,0.00,,,0.00,,2013-01-20 13:12:00,
2013-01-20 08:23:00,41.0,28.0,29.65,WSW,248,0.0,0.0,59,0.00,,,0.00,,2013-01-20 13:23:00,
2013-01-20 08:33:00,42.0,29.0,29.65,WSW,248,0.0,0.0,59,0.00,,,0.00,,2013-01-20 13:33:00,
2013-01-20 08:43:00,42.0,29.0,29.65,WSW,248,0.0,0.0,59,0.00,,,0.00,,2013-01-20 13:43:00,
2013-01-20 08:53:00,43.0,30.0,29.65,WSW,248,0.0,0.0,60,0.00,,,0.00,,2013-01-20 13:53:00,
2013-01-20 09:02:00,43.0,30.0,29.65,WSW,248,0.0,0.0,60,0.00,,,0.00,,2013-01-20 14:02:00,
2013-01-20 09:12:00,43.0,30.0,29.65,WSW,248,0.0,0.0,60,0.00,,,0.00,,2013-01-20 14:12:00,
2013-01-20 09:23:00,44.0,31.0,29.66,WSW,248,0.0,0.0,60,0.00,,,0.00,,2013-01-20 14:23:00,
2013-01-20 09:33:00,44.0,31.0,29.67,WSW,248,0.0,0.0,59,0.00,,,0.00,,2013-01-20 14:33:00,
2013-01-20 09:43:00,44.0,31.0,29.67,WSW,248,0.0,0.0,59,0.00,,,0.00,,2013-01-20 14:43:00,
2013-01-20 09:53:00,46.0,31.0,29.67,WSW,248,14.0,21.0,56,0.00,,,0.00,,2013-01-20 14:53:00,
2013-01-20 10:03:00,46.0,31.0,29.67,SW,229,13.0,20.0,56,0.00,,,0.00,,2013-01-20 15:03:00,
2013-01-20 10:12:00,46.0,31.0,29.67,SW,229,13.0,20.0,56,0.00,,,0.00,,2013-01-20 15:12:00,
2013-01-20 10:23:00,46.0,32.0,29.68,West,270,7.0,20.0,58,0.00,,,0.00,,2013-01-20 15:23:00,
2013-01-20 10:33:00,46.0,31.0,29.70,West,278,6.0,9.0,56,0.00,,,0.00,,2013-01-20 15:33:00,
2013-01-20 10:42:00,46.0,31.0,29.70,West,278,6.0,9.0,56,0.00,,,0.00,,2013-01-20 15:42:00,
2013-01-20 10:53:00,46.0,29.0,29.71,West,265,6.0,12.0,51,0.00,,,0.00,,2013-01-20 15:53:00,
2013-01-20 11:03:00,46.0,28.0,29.71,West,265,8.0,22.0,49,0.00,,,0.00,,2013-01-20 16:03:00,
2013-01-20 11:12:00,46.0,28.0,29.71,West,265,8.0,22.0,49,0.00,,,0.00,,2013-01-20 16:12:00,
2013-01-20 11:23:00,47.0,27.0,29.71,West,264,13.0,16.0,46,0.00,,,0.00,,2013-01-20 16:23:00,
2013-01-20 11:33:00,47.0,27.0,29.72,WSW,248,11.0,14.0,46,0.00,,,0.00,,2013-01-20 16:33:00,
2013-01-20 11:43:00,47.0,27.0,29.72,WSW,248,11.0,14.0,46,0.00,,,0.00,,2013-01-20 16:43:00,
2013-01-20 11:53:00,47.0,25.0,29.72,WSW,251,7.0,15.0,42,0.00,,,0.00,,2013-01-20 16:53:00,
2013-01-20 12:03:00,47.0,25.0,29.72,WSW,248,7.0,12.0,42,0.00,,,0.00,,2013-01-20 17:03:00,
2013-01-20 12:13:00,47.0,25.0,29.72,WSW,248,7.0,12.0,42,0.00,,,0.00,,2013-01-20 17:13:00,
2013-01-20 12:22:00,47.0,24.0,29.72,NW,309,8.0,16.0,40,0.00,,,0.00,,2013-01-20 17:22:00,
2013-01-20 12:33:00,48.0,24.0,29.72,WSW,258,7.0,7.0,39,0.00,,,0.00,,2013-01-20 17:33:00,
2013-01-20 12:42:00,48.0,24.0,29.72,WSW,258,7.0,7.0,39,0.00,,,0.00,,2013-01-20 17:42:00,
2013-01-20 12:53:00,48.0,24.0,29.73,West,266,8.0,18.0,38,0.00,,,0.00,,2013-01-20 17:53:00,
2013-01-20 13:03:00,48.0,23.0,29.73,West,274,12.0,18.0,37,0.00,,,0.00,,2013-01-20 18:03:00,
2013-01-20 13:13:00,48.0,22.0,29.74,WSW,253,10.0,21.0,35,0.00,,,0.00,,2013-01-20 18:13:00,
2013-01-20 13:23:00,48.0,22.0,29.74,WSW,253,10.0,21.0,35,0.00,,,0.00,,2013-01-20 18:23:00,
2013-01-20 13:33:00,48.0,22.0,29.75,WSW,253,11.0,21.0,35,0.00,,,0.00,,2013-01-20 18:33:00,
2013-01-20 13:43:00,48.0,22.0,29.75,WSW,253,11.0,21.0,35,0.00,,,0.00,,2013-01-20 18:43:00,
2013-01-20 13:53:00,47.0,21.0,29.75,West,259,12.0,18.0,35,0.00,,,0.00,,2013-01-20 18:53:00,
2013-01-20 14:03:00,47.0,21.0,29.75,West,259,12.0,18.0,35,0.00,,,0.00,,2013-01-20 19:03:00,
2013-01-20 14:12:00,47.0,21.0,29.75,West,259,12.0,18.0,35,0.00,,,0.00,,2013-01-20 19:12:00,
2013-01-20 14:22:00,46.0,21.0,29.77,WSW,248,10.0,18.0,36,0.00,,,0.00,,2013-01-20 19:22:00,
2013-01-20 14:33:00,46.0,21.0,29.78,NNE,22,9.0,16.0,37,0.00,,,0.00,,2013-01-20 19:33:00,
2013-01-20 14:43:00,46.0,21.0,29.78,NNE,22,9.0,16.0,37,0.00,,,0.00,,2013-01-20 19:43:00,
2013-01-20 14:53:00,47.0,21.0,29.82,NW,315,5.0,9.0,36,0.00,,,0.00,,2013-01-20 19:53:00,
2013-01-20 15:03:00,47.0,21.0,29.82,NW,315,5.0,9.0,36,0.00,,,0.00,,2013-01-20 20:03:00,
2013-01-20 15:12:00,47.0,21.0,29.82,NW,315,5.0,9.0,36,0.00,,,0.00,,2013-01-20 20:12:00,
2013-01-20 15:23:00,45.0,21.0,29.86,SW,236,9.0,13.0,38,0.00,,,0.00,,2013-01-20 20:23:00,
2013-01-20 15:33:00,45.0,21.0,29.90,West,270,7.0,10.0,38,0.00,,,0.00,,2013-01-20 20:33:00,
2013-01-20 15:42:00,45.0,21.0,29.90,West,270,7.0,10.0,38,0.00,,,0.00,,2013-01-20 20:42:00,
2013-01-20 15:53:00,44.0,20.0,29.93,NW,312,5.0,14.0,38,0.00,,,0.00,,2013-01-20 20:53:00,
2013-01-20 16:04:00,44.0,20.0,29.93,NNW,329,5.0,7.0,38,0.00,,,0.00,,2013-01-20 21:04:00,
2013-01-20 16:13:00,44.0,20.0,29.93,NNW,329,5.0,7.0,38,0.00,,,0.00,,2013-01-20 21:13:00,
2013-01-20 16:23:00,44.0,21.0,29.94,NNE,22,4.0,10.0,39,0.00,,,0.00,,2013-01-20 21:23:00,
2013-01-20 16:33:00,44.0,21.0,29.94,NNE,22,4.0,10.0,39,0.00,,,0.00,,2013-01-20 21:33:00,
2013-01-20 16:43:00,44.0,21.0,29.94,NNE,22,4.0,10.0,39,0.00,,,0.00,,2013-01-20 21:43:00,
2013-01-20 16:53:00,41.0,18.0,29.96,NW,315,3.0,6.0,39,0.00,,,0.00,,2013-01-20 21:53:00,
2013-01-20 17:03:00,41.0,18.0,29.96,West,270,3.0,5.0,39,0.00,,,0.00,,2013-01-20 22:03:00,
2013-01-20 17:13:00,41.0,18.0,29.96,West,270,3.0,5.0,39,0.00,,,0.00,,2013-01-20 22:13:00,
2013-01-20 17:23:00,41.0,18.0,29.96,West,270,3.0,5.0,39,0.00,,,0.00,,2013-01-20 22:23:00,
2013-01-20 17:33:00,37.0,16.0,29.90,West,270,3.0,6.0,42,0.00,,,0.00,,2013-01-20 22:33:00,
2013-01-20 17:43:00,37.0,16.0,29.90,West,270,3.0,6.0,42,0.00,,,0.00,,2013-01-20 22:43:00,
2013-01-20 17:53:00,35.0,15.0,29.91,WSW,248,3.0,8.0,44,0.00,,,0.00,,2013-01-20 22:53:00,
2013-01-20 18:03:00,34.0,15.0,29.91,SE,135,3.0,8.0,46,0.00,,,0.00,,2013-01-20 23:03:00,
2013-01-20 18:13:00,34.0,15.0,29.91,SE,135,3.0,8.0,46,0.00,,,0.00,,2013-01-20 23:13:00,
2013-01-20 18:23:00,33.0,15.0,29.91,West,270,3.0,6.0,47,0.00,,,0.00,,2013-01-20 23:23:00,
2013-01-20 18:33:00,33.0,15.0,29.93,WSW,248,3.0,6.0,48,0.00,,,0.00,,2013-01-20 23:33:00,
2013-01-20 18:43:00,33.0,15.0,29.93,WSW,248,3.0,6.0,48,0.00,,,0.00,,2013-01-20 23:43:00,
2013-01-20 18:53:00,32.0,15.0,29.95,SW,225,5.0,8.0,49,0.00,,,0.00,,2013-01-20 23:53:00,
2013-01-20 19:03:00,31.0,15.0,29.95,WNW,292,5.0,8.0,50,0.00,,,0.00,,2013-01-21 00:03:00,
2013-01-20 19:13:00,31.0,15.0,29.95,WNW,292,5.0,8.0,50,0.00,,,0.00,,2013-01-21 00:13:00,
2013-01-20 19:23:00,30.0,14.0,29.97,WSW,248,3.0,7.0,50,0.00,,,0.00,,2013-01-21 00:23:00,
2013-01-20 19:33:00,30.0,14.0,29.97,WSW,248,3.0,7.0,51,0.00,,,0.00,,2013-01-21 00:33:00,
2013-01-20 19:43:00,30.0,14.0,29.97,WSW,248,3.0,7.0,51,0.00,,,0.00,,2013-01-21 00:43:00,
2013-01-20 19:54:00,30.0,14.0,29.99,SW,225,3.0,7.0,51,0.00,,,0.00,,2013-01-21 00:54:00,
2013-01-20 20:03:00,29.0,14.0,29.99,WSW,248,2.0,5.0,52,0.00,,,0.00,,2013-01-21 01:03:00,
2013-01-20 20:13:00,29.0,14.0,29.99,WSW,248,2.0,5.0,52,0.00,,,0.00,,2013-01-21 01:13:00,
2013-01-20 20:23:00,29.0,14.0,29.98,SW,225,3.0,6.0,52,0.00,,,0.00,,2013-01-21 01:23:00,
2013-01-20 20:33:00,28.0,13.0,29.98,WSW,248,5.0,7.0,53,0.00,,,0.00,,2013-01-21 01:33:00,
2013-01-20 20:43:00,28.0,13.0,29.98,WSW,248,5.0,7.0,53,0.00,,,0.00,,2013-01-21 01:43:00,
2013-01-20 20:53:00,28.0,14.0,29.99,SW,226,3.0,6.0,54,0.00,,,0.00,,2013-01-21 01:53:00,
2013-01-20 21:03:00,28.0,14.0,29.99,West,269,3.0,5.0,54,0.00,,,0.00,,2013-01-21 02:03:00,
2013-01-20 21:12:00,28.0,14.0,29.99,West,269,3.0,5.0,54,0.00,,,0.00,,2013-01-21 02:12:00,
2013-01-20 21:23:00,27.0,13.0,30.00,WNW,290,2.0,6.0,55,0.00,,,0.00,,2013-01-21 02:23:00,
2013-01-20 21:33:00,27.0,13.0,30.00,West,272,1.0,6.0,55,0.00,,,0.00,,2013-01-21 02:33:00,
2013-01-20 21:43:00,27.0,13.0,30.00,West,272,1.0,6.0,55,0.00,,,0.00,,2013-01-21 02:43:00,
2013-01-20 21:53:00,27.0,13.0,30.01,WNW,292,2.0,7.0,55,0.00,,,0.00,,2013-01-21 02:53:00,
2013-01-20 22:03:00,27.0,13.0,30.01,West,270,2.0,7.0,55,0.00,,,0.00,,2013-01-21 03:03:00,
2013-01-20 22:13:00,27.0,13.0,30.01,West,270,2.0,7.0,55,0.00,,,0.00,,2013-01-21 03:13:00,
2013-01-20 22:23:00,26.0,12.0,30.01,WSW,248,2.0,6.0,56,0.00,,,0.00,,2013-01-21 03:23:00,
2013-01-20 22:33:00,26.0,12.0,30.01,West,270,2.0,5.0,55,0.00,,,0.00,,2013-01-21 03:33:00,
2013-01-20 22:43:00,26.0,12.0,30.01,West,270,2.0,5.0,55,0.00,,,0.00,,2013-01-21 03:43:00,
2013-01-20 22:54:00,26.0,12.0,30.01,West,270,2.0,3.0,56,0.00,,,0.00,,2013-01-21 03:54:00,
2013-01-20 23:03:00,26.0,12.0,30.01,WSW,248,2.0,5.0,56,0.00,,,0.00,,2013-01-21 04:03:00,
2013-01-20 23:13:00,26.0,12.0,30.01,WSW,248,2.0,5.0,56,0.00,,,0.00,,2013-01-21 04:13:00,
2013-01-20 23:23:00,25.0,12.0,30.01,WSW,248,2.0,7.0,57,0.00,,,0.00,,2013-01-21 04:23:00,
2013-01-20 23:33:00,25.0,12.0,30.01,WSW,249,2.0,7.0,57,0.00,,,0.00,,2013-01-21 04:33:00,
2013-01-20 23:43:00,25.0,12.0,30.01,WSW,249,2.0,7.0,57,0.00,,,0.00,,2013-01-21 04:43:00,
2013-01-20 23:53:00,25.0,12.0,30.01,West,270,2.0,3.0,57,0.00,,,0.00,,2013-01-21 04:53:00,